Home > Time Zones > World Clock > Weather > Japan > Tsu > Past weeks

Flag for Japan Weather past 2 weeks in Tsu, Japan

Now
63 °F

Mild.


Feels Like: 63 °F
Forecast: 51 / 79 °F
Wind: 5 mph from West

Location: Tsu

Current Time: Sep 23, 2014 at 6:10:45 AM

Latest Report: Sep 23, 2014 at 5:00 AM


Visibility: N/A

Pressure: 30.14 "Hg

Humidity: 70%

Dew point: 53 °F

Location of TsuLocation

Historic Weather in Tsu — Graph

°F

Tsu temperature yesterday

Maximum temperature yesterday: 83 °F (at 3:00 PM)
Minimum temperature yesterday: 66 °F (at 5:00 AM)
Average temperature yesterday: 72 °F

Past Weeks' High & Low Weather Summary

 TemperatureHumidityPressure
High86 °F (Sep 9, 12:00 PM)92% (Sep 11, 6:00 AM)30.12 "Hg (Sep 11, 6:00 AM)
Low61 °F (Sep 21, 5:00 AM)23% (Sep 22, 3:00 PM)29.64 "Hg (Sep 9, 1:00 AM)
Average73 °F62%29.89 "Hg
* Reported Sep 8 4:00 AM — Sep 23 4:00 AM, Tsu, Weather by CustomWeather, © 2014

Note: Actual official high and low records may vary slightly from our data, if they occured in-between our weather recording intervals... More about our weather records

Advertising

Tsu weather history for previous 24 hours

 ConditionsComfort  
Time TempWeatherWind HumidityBarometerVisibility
4:00 AM
Sep 23
64 °FMild.5 mph66%30.12 "HgN/A
3:00 AM65 °FMild.5 mph67%30.11 "HgN/A
2:00 AM65 °FMild.5 mph72%30.10 "HgN/A
1:00 AM67 °FMild.5 mph66%30.08 "HgN/A
12:00 AM68 °FMild.5 mph65%30.07 "HgN/A
11:00 PM
Sep 22
69 °FMild.5 mph62%30.08 "HgN/A
10:00 PM71 °FMild.5 mph57%30.07 "HgN/A
9:00 PM71 °FPassing clouds.7 mph58%30.06 "Hg12 mi
8:00 PM72 °FMild.7 mph54%30.05 "HgN/A
7:00 PM73 °FMild.10 mph56%30.02 "HgN/A
6:00 PM75 °FMild.12 mph51%30.00 "HgN/A
5:00 PM79 °FWarm.12 mph40%30.00 "HgN/A
4:00 PM82 °FPleasantly warm.12 mph32%29.98 "HgN/A
3:00 PM83 °FPartly sunny.8 mph23%29.98 "Hg16 mi
2:00 PM78 °FWarm.6 mph57%29.98 "HgN/A
1:00 PM76 °FMild.7 mph62%30.01 "HgN/A
12:00 PM76 °FMild.7 mph63%30.03 "HgN/A
11:00 AM75 °FMild.7 mph61%30.04 "HgN/A
10:00 AM73 °FMild.5 mph65%30.06 "HgN/A
9:00 AM72 °FOvercast.3 mph66%30.08 "Hg6 mi
8:00 AM69 °FMild.2 mph74%30.09 "HgN/A
7:00 AM67 °FMild.2 mph77%30.09 "HgN/A
6:00 AM66 °FMild.3 mph77%30.08 "HgN/A
Weather by CustomWeather, © 2014

See weather overviewHow to use our weather pages